GW6348 Weather Reports


time (UTC)temp
F
wind
direction
speed
knots
gust
knots
rain 1hr
in
rain 24hr
in
rain mn
in
humidity
%
barometer
mb
20260504173018 76 142 3.5 7.8 0.00 0.02 0.02 42 1017.7
20260504171524 74 130 1.7 5.2 0.00 0.02 0.02 46 1017.8
20260504081518 67 277 2.6 6.1 0.00 0.03 0.00 63 1017.7
20260504050012 68 218 5.2 9.6 0.00 0.03 0.00 58 1019.3
20260504044512 68 212 4.3 9.6 0.00 0.03 0.03 61 1019.4
20260504043011 68 200 7.8 12.2 0.00 0.03 0.03 59 1019.5
20260504041509 68 196 7.0 9.6 0.00 0.03 0.03 60 1019.6
20260504040012 68 220 7.0 11.3 0.00 0.03 0.03 60 1019.4
20260504034511 69 196 8.7 13.9 0.00 0.03 0.03 58 1019.4
20260504033013 69 212 5.2 10.4 0.00 0.03 0.03 53 1019.4
20260504031514 69 200 6.1 10.4 0.00 0.03 0.03 51 1019.5
20260504030015 69 207 6.1 10.4 0.00 0.03 0.03 55 1019.4
20260504024512 69 207 6.1 8.7 0.00 0.03 0.03 57 1019.1
20260504023014 70 201 5.2 7.0 0.00 0.03 0.03 59 1019.2
20260504021513 70 221 1.7 5.2 0.00 0.03 0.03 54 1018.9
20260504020017 71 221 1.7 3.5 0.00 0.03 0.03 54 1018.8
20260504014514 71 219 2.6 6.1 0.00 0.03 0.03 50 1018.7
20260504013014 71 216 2.6 5.2 0.00 0.03 0.03 54 1018.7
20260504011514 71 226 1.7 3.5 0.00 0.03 0.03 51 1018.5
20260504010013 71 229 1.7 4.3 0.00 0.03 0.03 51 1018.6
20260504004532 71 222 2.6 5.2 0.00 0.03 0.03 50 1018.4
20260504003011 72 253 2.6 5.2 0.00 0.03 0.03 48 1018.2
20260504001528 73 272 3.5 8.7 0.00 0.03 0.03 45 1018.2
20260504000016 73 234 3.5 6.1 0.00 0.03 0.03 46 1018.2
20260503234519 73 204 3.5 7.8 0.00 0.03 0.03 45 1018.3
20260503233015 73 254 3.5 8.7 0.00 0.03 0.03 45 1018.5
20260503231514 73 249 4.3 9.6 0.00 0.04 0.03 42 1018.5
20260503230017 74 238 6.1 9.6 0.00 0.04 0.03 43 1018.5
20260503224514 74 225 5.2 9.6 0.00 0.04 0.03 40 1018.6
20260503223015 73 233 3.5 10.4 0.00 0.04 0.03 41 1018.6
20260503221517 73 269 6.1 10.4 0.00 0.04 0.03 40 1018.6
20260503220027 73 233 7.8 9.6 0.00 0.04 0.03 42 1018.8
20260503214529 73 257 5.2 8.7 0.00 0.04 0.03 41 1019.2
20260503213029 73 194 4.3 10.4 0.00 0.04 0.03 40 1019.2
20260503211519 73 216 4.3 10.4 0.00 0.04 0.03 43 1019.4
20260503210015 73 204 7.0 10.4 0.00 0.04 0.03 41 1019.6
20260503204525 73 182 6.1 8.7 0.00 0.04 0.03 40 1019.9
20260503203019 73 218 7.8 10.4 0.00 0.04 0.03 40 1020.1
20260503201522 73 203 7.8 11.3 0.00 0.04 0.03 42 1020.2
20260503200020 72 195 7.0 10.4 0.00 0.04 0.03 41 1020.4
20260503194513 73 205 5.2 10.4 0.00 0.04 0.03 40 1020.5
20260503193018 74 196 6.1 9.6 0.00 0.05 0.03 38 1020.7
20260503191520 74 201 5.2 8.7 0.00 0.05 0.03 40 1021.1
20260503190026 74 214 4.3 10.4 0.00 0.05 0.03 41 1021.1
20260503184524 73 203 5.2 8.7 0.00 0.05 0.03 38 1021.4
20260503183014 74 247 2.6 7.8 0.00 0.05 0.03 35 1021.3
20260503181538 74 114 6.1 8.7 0.00 0.05 0.03 34 1021.3
20260503180037 76 115 3.5 11.3 0.00 0.05 0.03 37 1021.6
20260503174524 73 95 3.5 8.7 0.00 0.05 0.03 35 1022.0